Temperature
20 20 19 19 19 19 21 22 23 23 22 23 23 22 21 20 20 20 21 20 20 20 19 19 19 19 19 19 19 19 19 19 19 19 19 19 19 19 19 19 19 19 19 19 19 18 18 18 18
20 20 20 19 19 20 21 22 23 23 23 23 23 22 21 20 20 21 21 20 20 20 19 19 19 19 19 19 19 18 18 19 19 19 19 19 19 19 19 19 19 19 19 19 19 18 18 18 18
20 20 20 19 20 20 22 23 23 23 23 23 22 22 21 21 21 21 21 20 20 20 20 19 19 19 19 19 19 19 18 18 19 19 19 19 19 19 19 19 19 19 19 19 19 19 19 18 18
21 20 20 19 21 22 22 23 23 23 23 23 22 21 21 21 21 21 21 20 20 20 20 19 19 19 19 19 19 19 19 19 19 19 19 19 19 19 19 19 19 19 19 19 19 19 19 19 18
21 21 20 20 21 22 23 23 23 23 23 22 22 21 21 21 21 21 21 21 20 20 20 19 19 19 19 19 19 19 19 19 19 19 19 19 19 19 19 19 19 19 19 19 19 19 19 19 18
21 20 20 21 22 23 23 24 24 23 22 22 22 20 20 21 21 21 21 20 20 20 20 19 19 19 19 19 19 19 19 19 19 19 19 19 19 19 19 19 19 19 19 19 19 19 19 19 18
21 20 21 21 22 23 24 24 23 23 22 22 22 20 20 20 21 21 21 20 20 20 20 19 19 19 19 19 19 19 19 19 19 19 19 19 19 19 19 19 19 19 19 19 19 19 19 19 18
22 20 21 21 22 24 24 24 24 23 23 23 23 21 20 21 21 21 20 20 20 20 20 20 19 19 19 19 19 19 19 19 19 19 19 19 19 19 19 19 19 19 19 19 19 19 19 19 18
22 20 21 22 23 24 24 24 24 24 23 23 23 22 22 21 21 20 20 20 20 20 20 20 19 19 19 19 19 19 19 19 19 19 19 19 19 19 19 19 19 19 19 19 19 19 19 18 18
22 20 22 23 23 23 24 24 24 23 23 22 22 22 22 21 21 21 20 20 20 20 20 20 20 19 19 19 19 19 19 19 19 19 19 19 19 19 19 19 19 19 19 19 19 19 19 18 18
22 21 23 24 25 25 24 24 24 23 22 22 22 22 21 21 21 21 21 21 21 20 20 20 20 20 19 19 19 19 19 19 19 19 19 19 19 19 19 19 19 19 19 19 19 19 18 18 18
22 23 23 24 25 25 24 24 24 23 24 24 24 23 22 21 21 21 21 21 21 20 20 20 20 20 19 19 19 19 19 19 19 19 19 19 19 19 19 19 19 19 19 19 19 18 18 18 18
23 24 25 25 25 25 24 24 24 23 24 24 23 22 22 22 22 21 21 21 21 21 20 20 20 20 20 19 19 19 19 19 19 19 19 19 19 19 19 19 19 19 19 19 19 18 18 18 18
24 24 25 25 25 25 24 23 23 23 24 23 23 22 22 22 22 21 21 21 21 21 21 20 20 20 20 20 20 19 19 19 19 19 19 19 19 19 19 19 19 19 19 19 19 19 18 18 18
25 24 24 25 25 25 24 23 23 23 23 23 22 22 22 22 21 21 21 21 21 21 21 20 20 20 20 20 20 20 20 19 19 19 19 19 19 19 19 19 19 19 19 19 18 18 18 18 19
24 24 24 25 25 25 24 23 23 23 23 22 22 22 21 22 21 21 21 21 21 21 21 20 20 20 20 20 20 20 20 20 20 19 19 19 19 19 19 19 19 19 18 18 18 18 18 18 18
23 23 24 25 25 24 24 23 23 23 22 22 22 21 21 21 21 21 21 21 21 21 21 21 20 20 20 20 20 20 19 19 19 19 19 19 19 19 19 19 19 19 18 18 18 18 18 18 18
24 24 24 24 24 24 23 23 23 22 22 22 22 22 21 22 22 22 21 21 21 21 21 21 20 20 20 20 20 19 19 19 19 19 19 19 19 19 19 19 19 19 18 18 18 18 18 18 18
25 24 24 24 25 24 23 23 22 22 22 21 21 21 22 22 22 22 22 21 21 21 21 21 21 20 20 20 20 19 19 19 19 19 19 19 19 19 19 19 19 18 18 18 18 18 18 18 18
24 24 24 24 25 24 23 23 22 22 22 22 22 21 22 22 22 22 22 22 21 21 21 21 21 20 20 20 20 19 19 19 19 19 19 19 19 19 19 19 19 19 18 18 18 18 18 18 18
25 24 24 24 24 24 24 23 22 22 22 22 22 22 22 22 22 22 22 22 22 21 21 21 21 20 20 20 20 19 19 19 19 19 19 19 19 19 19 18 19 18 18 18 18 18 18 18 18
25 25 25 24 23 22 23 22 22 21 21 21 21 21 22 22 22 22 22 22 22 22 22 21 21 21 20 20 20 19 19 19 19 19 19 19 19 19 19 18 18 18 18 18 18 18 18 18 18
25 25 24 23 22 21 22 22 21 21 21 21 21 21 22 22 22 22 22 23 22 22 22 21 21 21 20 20 20 19 19 19 19 19 19 19 19 19 18 18 18 18 18 18 18 18 18 18 17
25 24 23 20 20 22 22 22 21 20 21 21 21 21 21 22 22 22 22 22 22 22 22 21 21 21 20 20 20 19 19 19 19 19 19 19 18 18 18 18 18 18 18 18 18 17 17 17 17
25 23 22 22 21 21 21 21 21 22 21 21 21 21 21 22 22 22 22 22 22 22 22 21 21 21 20 20 20 19 19 19 19 19 19 18 18 18 18 18 18 17 17 17 17 17 17 17 17
24 23 22 23 22 21 21 21 21 22 22 22 21 21 21 21 22 22 22 22 22 22 21 21 21 21 20 20 20 20 19 19 19 19 18 18 18 18 18 17 17 17 17 17 17 17 17 17 17
24 22 21 20 21 21 21 21 21 21 21 21 21 21 21 21 21 21 22 22 22 22 21 21 21 20 20 20 20 19 19 19 19 18 18 18 18 18 17 17 17 17 17 17 17 17 17 17 16
23 21 19 20 21 21 22 21 21 22 21 20 20 20 20 21 21 21 21 22 21 21 21 21 21 20 20 20 19 19 19 19 18 18 18 18 18 18 17 17 17 17 17 16 16 16 16 16 16
23 22 19 18 19 20 21 21 22 21 21 20 20 20 20 21 21 21 22 22 22 21 21 21 21 20 20 19 19 19 19 18 18 18 18 18 18 17 17 17 17 17 16 16 16 16 16 16 16
23 22 20 21 20 18 19 21 22 20 20 20 20 20 21 21 21 21 21 22 21 21 21 21 20 20 20 19 19 19 18 18 18 18 18 18 18 17 17 17 17 16 16 16 16 16 16 16 16
Wind_Speed
7 5 3 1 1 3 2 3 1 2 2 2 3 5 6 4 2 2 0 6 7 6 5 8 9 9 9 9 10 10 11 11 11 11 11 11 11 11 10 10 9 9 8 8 8 7 7 7 8
6 4 2 1 3 3 3 2 1 1 3 4 5 5 5 4 3 5 3 5 8 7 5 7 9 9 9 9 10 10 10 10 10 10 9 9 9 9 9 9 9 8 8 7 7 7 6 7 7
5 3 1 3 2 1 2 1 2 3 3 2 3 4 4 3 3 4 4 8 7 6 5 7 9 9 9 9 9 9 9 9 9 9 9 8 8 8 8 9 8 8 7 7 7 7 6 6 6
3 1 2 3 2 2 2 1 2 4 3 5 4 5 3 2 3 4 8 9 8 5 5 6 9 9 9 9 9 8 8 8 8 8 7 7 7 7 8 8 8 7 7 7 6 6 6 6 5
1 2 4 3 3 3 1 1 2 3 2 3 4 4 3 4 6 9 9 8 7 5 4 5 8 8 8 8 8 8 8 7 7 7 6 5 5 6 7 8 7 7 6 6 6 6 5 5 5
2 3 4 2 4 3 1 1 3 4 4 3 4 4 2 3 6 8 7 7 6 5 3 4 7 7 8 8 7 7 7 6 6 5 5 4 4 5 6 7 7 7 6 6 6 6 6 6 6
3 3 1 1 2 2 1 2 3 4 3 2 4 4 2 2 4 7 6 6 5 4 2 2 3 5 6 7 7 7 6 6 5 4 4 3 4 4 5 5 6 6 6 6 6 6 7 6 6
3 3 1 1 1 2 1 2 2 3 2 3 4 6 4 4 7 7 7 5 4 3 2 1 1 2 3 4 6 6 6 5 4 4 3 3 3 3 4 3 4 5 5 6 6 6 7 6 6
2 3 1 3 3 2 1 2 1 2 4 3 3 4 5 10 10 8 5 4 3 3 1 1 1 1 2 3 4 4 5 5 4 2 2 1 0 0 1 2 3 4 5 6 7 7 7 6 6
3 2 4 4 4 3 1 2 3 3 3 3 5 6 9 11 10 8 7 6 5 5 4 2 2 2 2 3 2 2 2 2 2 1 0 0 0 1 2 2 3 4 4 5 5 6 6 5 3
4 4 3 3 4 4 2 2 2 6 2 4 7 9 10 10 8 8 7 6 6 5 4 4 3 3 3 2 1 1 1 1 1 1 1 1 1 2 2 2 3 3 3 3 3 3 2 3 3
3 4 4 3 2 3 3 3 3 4 5 5 10 12 11 10 9 9 8 7 5 5 5 4 4 3 3 2 1 2 1 1 2 2 2 1 0 1 1 1 2 3 3 2 2 2 2 3 3
3 3 1 2 1 2 3 2 2 1 3 8 10 10 10 9 7 6 5 5 5 6 5 4 4 4 3 2 2 2 2 2 2 2 2 2 1 1 1 1 2 3 3 2 2 2 2 2 3
3 0 1 1 2 2 4 1 2 0 7 10 10 9 8 8 7 5 5 5 5 6 5 4 5 5 4 3 3 2 2 2 2 2 2 3 2 1 1 1 2 2 2 2 2 2 2 2 2
2 3 5 2 2 2 5 3 0 1 7 8 8 8 7 6 6 7 7 6 6 5 4 4 5 5 5 4 3 2 2 2 2 2 2 3 3 2 1 1 1 2 3 2 2 2 1 1 2
3 4 2 3 1 2 5 2 1 4 7 7 6 6 6 5 6 6 6 5 5 5 4 4 4 5 5 4 3 2 2 2 1 1 2 2 2 2 2 1 1 2 2 1 1 1 1 2 2
4 1 2 3 1 2 3 3 2 4 7 6 5 5 5 4 4 4 5 6 6 6 5 4 3 5 5 4 3 2 1 1 0 0 0 1 1 1 1 1 1 1 1 1 1 1 0 1 2
3 2 2 3 2 2 2 4 2 5 7 7 6 5 5 5 6 5 5 5 5 5 5 4 3 3 4 3 2 2 1 1 1 0 1 1 1 0 0 0 1 0 0 1 1 1 0 1 1
3 2 4 4 2 2 3 3 2 5 5 5 5 5 5 6 4 4 5 5 5 4 4 4 4 4 4 3 2 2 1 1 1 1 1 1 1 1 0 0 0 0 0 1 1 0 1 1 1
3 2 3 3 1 2 1 2 1 4 6 7 7 6 6 5 3 4 5 5 5 5 5 4 4 4 4 3 2 2 2 1 1 1 1 1 1 1 0 0 0 0 0 0 1 0 0 1 1
2 4 4 3 2 3 2 4 1 2 2 3 4 4 4 6 6 5 5 6 6 6 6 6 4 4 4 4 3 3 2 2 1 1 1 2 1 1 0 0 0 0 1 0 0 0 1 1 1
4 4 4 3 2 2 1 2 6 3 2 4 4 4 4 5 5 6 6 6 7 7 6 5 5 5 4 5 4 4 2 1 1 1 1 2 2 1 1 0 0 0 0 0 1 0 1 1 0
3 2 3 3 3 2 3 1 7 0 3 6 6 5 5 5 6 6 6 6 6 5 5 5 5 4 4 5 5 4 3 2 1 0 1 2 2 2 1 0 0 0 0 1 1 0 1 1 1
4 6 6 6 5 1 2 2 6 3 5 5 6 6 6 5 5 5 5 4 4 4 4 5 5 4 4 4 4 4 4 3 1 0 1 1 2 2 2 1 0 1 1 1 1 1 1 2 1
5 6 4 5 4 5 2 2 8 6 5 6 7 7 6 5 6 6 6 6 5 5 5 5 6 4 4 5 5 4 4 4 3 2 1 0 1 1 2 2 1 1 2 2 1 1 1 1 1
3 7 7 5 5 4 2 4 7 4 3 3 4 4 4 4 5 6 7 7 6 6 6 6 6 5 4 4 4 4 3 3 3 2 2 2 1 2 2 1 1 1 2 1 1 1 1 1 2
4 3 5 7 3 0 5 6 7 2 2 0 1 2 3 4 5 5 6 6 6 6 6 6 6 5 4 4 3 3 2 2 2 2 2 1 1 1 1 1 1 2 1 1 0 1 1 1 1
4 7 6 5 5 2 5 4 4 6 4 2 2 3 3 3 3 3 4 4 4 5 5 4 5 5 4 4 3 3 3 2 2 1 1 1 1 1 0 1 1 1 1 1 1 1 1 1 1
3 4 5 5 5 6 3 6 4 6 5 5 5 4 4 4 3 4 3 3 4 4 4 4 4 4 3 3 3 3 2 2 2 2 2 2 2 1 1 2 1 1 2 2 1 1 2 1 2
3 5 6 4 3 4 4 7 4 3 3 3 3 3 3 3 3 3 3 3 3 4 4 4 4 4 4 3 3 2 2 1 1 2 2 1 1 2 2 1 1 1 1 1 1 2 2 2 2
Wind_Direction
178 167 153 175 49 40 338 316 327 14 31 36 78 90 105 100 128 150 117 134 129 132 144 148 145 139 134 128 128 129 132 134 137 136 136 139 143 145 146 146 147 146 146 145 144 148 153 154 154
158 161 178 44 63 35 320 317 40 80 141 124 76 74 76 71 71 112 124 136 129 134 140 149 146 140 136 133 131 133 134 136 137 137 136 139 143 147 152 153 154 151 151 150 151 153 153 154 159
169 188 79 51 61 172 283 327 96 88 107 94 75 60 79 98 123 144 153 135 124 131 141 158 148 147 143 139 137 136 137 138 136 139 140 143 146 150 154 155 156 157 159 159 158 160 160 162 166
170 119 55 55 2 266 238 240 121 114 65 50 91 70 58 52 138 139 132 131 129 133 144 160 151 153 152 147 145 142 143 142 141 143 145 149 152 157 159 159 161 162 165 168 168 168 168 172 177
108 84 51 23 332 311 268 175 141 98 73 60 88 89 46 27 94 117 128 131 135 139 150 163 153 157 158 154 152 151 151 150 149 150 154 159 162 166 166 167 170 172 176 178 179 180 186 187 189
67 67 59 7 337 336 1 123 107 84 86 85 92 94 51 76 108 127 127 126 131 138 145 157 158 160 162 160 158 154 152 150 151 154 160 168 173 174 172 174 175 179 183 188 192 195 201 204 204
99 82 91 277 318 334 83 95 101 106 98 119 120 103 86 108 124 124 113 112 115 122 123 138 156 165 170 171 169 167 165 160 157 157 164 169 169 170 177 187 190 192 197 201 206 210 212 216 219
130 94 37 289 254 291 135 99 102 119 117 119 117 134 172 168 128 111 99 101 110 115 112 127 142 159 170 176 176 179 177 168 169 168 172 173 168 168 180 199 214 219 219 217 219 223 227 225 227
126 70 251 228 205 239 131 101 89 86 109 105 100 134 147 132 125 117 109 106 138 162 163 175 181 185 189 191 187 180 174 169 173 181 180 157 146 240 225 226 233 243 241 238 237 237 241 238 232
112 147 230 222 194 184 182 141 147 103 98 93 84 91 118 130 138 146 157 168 181 192 196 195 200 200 197 204 187 173 174 161 167 192 274 313 261 274 272 255 254 257 253 254 257 256 254 251 245
164 201 234 247 209 171 156 150 139 134 177 191 158 144 141 145 152 165 177 184 192 192 194 193 201 204 196 198 174 170 182 191 214 235 242 216 254 284 296 298 290 287 284 282 280 281 271 263 249
191 241 225 241 178 145 154 140 121 164 211 170 150 147 149 159 173 182 188 192 186 184 199 199 193 192 201 197 192 185 188 207 225 244 240 205 211 284 294 297 297 300 295 296 286 270 265 265 255
215 265 247 194 138 132 111 131 141 188 118 115 125 138 155 167 179 186 189 188 183 191 204 202 194 196 197 192 206 189 206 221 228 236 238 211 199 247 277 293 294 295 287 269 266 265 267 272 268
202 190 10 43 105 129 124 91 97 181 123 123 135 151 165 174 177 174 178 184 187 195 202 196 196 200 193 193 202 199 211 223 217 216 228 216 211 216 249 291 307 306 299 283 270 264 262 272 272
83 46 9 10 89 121 103 16 318 156 131 135 152 162 172 184 179 186 189 190 189 190 191 192 195 192 191 195 198 196 204 206 216 226 223 214 211 210 218 254 292 299 307 309 303 304 302 288 280
40 51 1 301 93 112 112 255 263 133 137 149 161 168 177 194 195 195 186 179 175 172 172 187 186 175 179 181 186 186 195 189 214 247 231 226 217 207 199 231 281 305 320 326 308 302 318 303 294
26 37 262 293 210 131 141 239 232 144 148 166 172 178 186 200 209 193 185 179 173 170 167 170 170 164 168 165 156 150 141 145 189 225 249 267 249 201 181 240 292 332 341 326 296 294 244 286 295
254 262 264 258 236 136 184 234 197 160 162 181 186 190 193 206 216 194 182 175 169 166 161 161 160 158 150 138 124 106 75 2 338 318 307 318 326 53 101 286 333 25 5 334 317 295 283 255 290
202 222 262 267 229 148 218 241 210 174 172 190 201 205 211 221 215 176 168 164 156 160 157 164 159 159 139 132 140 141 175 270 299 289 308 308 327 353 112 308 353 76 154 272 301 286 319 322 340
186 218 261 306 62 149 199 282 205 179 202 204 204 210 215 219 200 176 168 168 169 174 173 172 170 166 159 154 143 140 143 181 229 319 346 335 328 316 252 207 246 170 184 6 10 25 289 328 19
231 198 220 211 31 51 71 335 270 215 223 213 212 212 214 203 197 187 178 179 176 181 183 187 181 172 163 149 115 99 77 43 23 359 336 324 331 309 271 242 213 217 168 218 263 180 170 225 324
267 228 187 160 95 321 56 276 281 238 244 222 229 215 210 210 198 188 187 187 187 193 184 178 171 169 161 147 143 140 146 182 239 258 297 333 355 344 313 18 209 209 187 226 263 193 208 182 257
216 97 108 104 115 46 15 168 287 288 249 239 227 218 217 205 190 191 196 194 189 183 175 169 159 164 161 155 162 156 169 196 230 50 16 351 351 348 348 34 52 298 250 263 286 282 219 203 205
138 72 57 50 70 1 264 178 280 248 232 239 223 218 213 199 191 190 183 166 159 149 157 159 153 165 166 163 165 167 174 177 159 106 14 347 346 339 341 351 340 292 280 270 262 251 241 233 220
100 93 37 2 7 259 276 209 254 264 235 217 213 212 206 194 188 189 182 172 167 157 158 158 155 167 171 170 173 175 178 178 194 201 199 274 322 315 314 315 295 287 281 271 261 256 269 256 237
173 142 159 196 223 271 323 243 261 278 264 212 196 188 186 188 186 187 187 183 179 173 166 165 166 173 173 177 182 176 173 183 203 196 191 203 227 257 284 303 298 293 294 291 259 252 266 279 259
140 155 155 134 135 315 286 290 305 308 327 117 165 160 179 195 186 187 181 181 181 179 177 178 171 174 179 180 172 167 176 188 201 203 196 208 227 246 314 312 309 309 304 296 240 266 278 276 269
122 139 99 116 142 239 289 284 270 280 269 256 212 211 204 189 187 186 180 176 179 181 172 164 168 180 183 178 181 179 182 199 209 197 210 234 255 268 276 292 294 307 316 309 262 280 293 295 293
79 88 100 113 145 158 234 267 241 238 235 218 220 210 188 181 186 190 184 184 173 154 153 161 168 166 168 173 174 172 180 189 190 199 217 219 231 233 226 239 258 290 309 307 288 292 311 299 306
153 154 145 152 205 171 179 260 299 255 234 208 218 199 184 182 185 188 179 175 164 159 162 168 171 171 180 175 170 184 195 183 188 226 238 220 226 231 223 220 232 259 279 290 278 280 294 290 297
Height
1499 1499 1500 1502 1504 1509 1510 1502 1496 1494 1494 1493 1493 1494 1496 1499 1503 1507 1503 1502 1503 1503 1504 1504 1505 1506 1507 1508 1509 1509 1511 1512 1513 1515 1517 1518 1519 1520 1521 1523 1524 1525 1527 1528 1529 1530 1531 1532 1533
1500 1500 1502 1503 1508 1519 1512 1499 1496 1494 1494 1494 1495 1496 1497 1499 1500 1501 1501 1503 1504 1504 1505 1506 1507 1508 1509 1510 1511 1512 1513 1514 1515 1516 1518 1519 1520 1521 1522 1523 1524 1526 1527 1528 1529 1530 1531 1532 1533
1500 1501 1503 1504 1510 1516 1509 1498 1496 1494 1495 1495 1496 1498 1499 1501 1501 1502 1503 1504 1505 1506 1507 1508 1509 1510 1510 1511 1512 1513 1514 1516 1517 1518 1519 1520 1521 1522 1523 1524 1525 1526 1527 1529 1530 1531 1532 1532 1534
1501 1503 1504 1509 1511 1506 1501 1497 1495 1495 1496 1496 1497 1500 1501 1503 1503 1504 1504 1505 1506 1507 1508 1509 1510 1511 1512 1513 1514 1515 1516 1517 1518 1519 1520 1521 1522 1523 1523 1524 1525 1527 1528 1529 1530 1531 1532 1533 1534
1502 1503 1508 1513 1509 1502 1497 1496 1496 1496 1497 1498 1498 1501 1503 1505 1505 1505 1506 1507 1508 1509 1510 1511 1512 1513 1514 1515 1516 1516 1517 1518 1519 1520 1521 1522 1522 1523 1524 1525 1526 1527 1528 1529 1530 1531 1532 1533 1534
1503 1504 1515 1518 1509 1501 1497 1497 1497 1498 1499 1499 1500 1502 1505 1506 1506 1507 1508 1509 1510 1511 1512 1512 1513 1514 1515 1516 1517 1518 1518 1519 1520 1521 1522 1522 1523 1523 1524 1525 1526 1527 1528 1529 1530 1531 1532 1533 1534
1504 1507 1514 1513 1510 1504 1499 1498 1498 1499 1500 1501 1501 1503 1505 1507 1508 1509 1510 1511 1512 1513 1513 1514 1515 1516 1516 1517 1518 1519 1519 1520 1521 1522 1522 1523 1523 1524 1525 1526 1527 1528 1529 1529 1530 1531 1532 1533 1533
1504 1508 1512 1512 1509 1505 1499 1499 1499 1500 1501 1502 1502 1503 1505 1507 1509 1510 1511 1512 1513 1514 1515 1516 1516 1517 1518 1518 1519 1520 1520 1521 1522 1522 1523 1524 1524 1525 1525 1526 1527 1528 1529 1530 1530 1531 1532 1532 1533
1505 1512 1516 1510 1506 1502 1499 1499 1501 1501 1501 1502 1503 1504 1505 1507 1509 1511 1512 1513 1514 1515 1516 1517 1517 1518 1519 1520 1520 1521 1521 1522 1523 1523 1524 1525 1525 1526 1526 1527 1527 1528 1529 1530 1530 1531 1531 1532 1532
1505 1513 1508 1501 1499 1498 1498 1499 1500 1501 1502 1503 1504 1505 1506 1507 1509 1510 1512 1513 1514 1515 1516 1517 1518 1519 1520 1520 1521 1522 1522 1523 1523 1524 1525 1525 1526 1526 1527 1527 1528 1528 1529 1529 1530 1530 1531 1531 1531
1503 1506 1500 1497 1496 1497 1498 1499 1500 1501 1503 1502 1502 1504 1506 1508 1509 1511 1512 1513 1515 1516 1517 1518 1519 1520 1521 1521 1522 1522 1523 1524 1524 1525 1526 1526 1527 1527 1527 1527 1528 1528 1529 1529 1529 1529 1530 1530 1530
1502 1499 1498 1496 1496 1497 1498 1499 1500 1501 1501 1501 1502 1504 1506 1508 1509 1510 1512 1514 1515 1516 1517 1518 1519 1520 1521 1522 1523 1523 1524 1525 1525 1526 1526 1527 1527 1527 1527 1527 1528 1528 1528 1528 1529 1529 1529 1529 1529
1501 1498 1496 1495 1496 1497 1498 1499 1500 1500 1501 1502 1504 1506 1507 1508 1510 1511 1513 1514 1515 1516 1517 1519 1520 1521 1522 1523 1523 1524 1525 1525 1526 1526 1526 1527 1527 1527 1527 1527 1528 1528 1528 1528 1528 1528 1528 1528 1528
1498 1497 1496 1496 1496 1497 1498 1499 1500 1501 1501 1502 1504 1506 1507 1508 1510 1511 1512 1513 1515 1516 1517 1518 1519 1520 1522 1523 1523 1524 1525 1525 1526 1526 1526 1527 1527 1527 1527 1527 1527 1527 1527 1528 1527 1527 1527 1527 1527
1497 1499 1498 1497 1496 1498 1499 1503 1501 1501 1502 1503 1505 1506 1507 1509 1510 1511 1512 1513 1514 1516 1517 1518 1519 1520 1521 1522 1523 1524 1525 1526 1526 1526 1527 1527 1527 1527 1527 1527 1527 1527 1527 1527 1527 1527 1526 1526 1526
1499 1505 1509 1500 1497 1498 1503 1510 1501 1501 1502 1504 1505 1507 1508 1509 1509 1511 1512 1514 1515 1516 1517 1518 1519 1520 1521 1522 1523 1524 1525 1525 1526 1527 1527 1527 1527 1527 1527 1527 1527 1527 1527 1526 1526 1526 1525 1525 1524
1509 1515 1512 1504 1498 1499 1503 1507 1501 1501 1502 1504 1506 1507 1507 1509 1509 1511 1512 1514 1515 1516 1517 1518 1519 1520 1521 1522 1523 1524 1525 1525 1526 1526 1527 1527 1527 1527 1527 1527 1526 1527 1526 1526 1526 1525 1525 1524 1523
1516 1514 1512 1509 1500 1500 1504 1504 1501 1501 1502 1503 1505 1506 1507 1508 1508 1510 1512 1513 1515 1516 1517 1518 1519 1520 1521 1522 1523 1523 1524 1525 1526 1526 1527 1527 1527 1527 1526 1526 1526 1526 1526 1525 1525 1524 1524 1523 1522
1504 1509 1511 1505 1498 1501 1504 1504 1502 1501 1502 1503 1504 1505 1506 1506 1508 1510 1511 1513 1514 1516 1517 1518 1519 1520 1521 1521 1522 1523 1524 1525 1525 1526 1526 1526 1526 1526 1526 1526 1525 1525 1525 1525 1524 1523 1523 1522 1522
1503 1509 1509 1503 1497 1501 1505 1504 1501 1501 1501 1501 1502 1503 1504 1505 1506 1508 1509 1511 1513 1515 1516 1518 1519 1520 1521 1522 1522 1523 1524 1524 1525 1525 1526 1526 1525 1525 1525 1525 1524 1524 1524 1523 1523 1522 1522 1521 1521
1503 1507 1506 1505 1502 1502 1506 1509 1504 1501 1501 1502 1502 1503 1503 1504 1505 1506 1508 1510 1512 1513 1515 1517 1519 1520 1521 1522 1522 1523 1524 1524 1524 1524 1525 1525 1524 1524 1524 1524 1523 1523 1522 1522 1522 1521 1521 1520 1520
1505 1495 1497 1502 1511 1518 1513 1526 1508 1503 1502 1501 1501 1501 1502 1503 1503 1505 1506 1508 1510 1512 1514 1516 1518 1519 1520 1521 1522 1522 1522 1522 1523 1523 1523 1523 1523 1523 1523 1523 1522 1522 1521 1521 1520 1520 1520 1519 1518
1496 1492 1497 1503 1512 1521 1518 1525 1516 1505 1504 1500 1498 1499 1499 1501 1502 1503 1504 1506 1508 1511 1512 1514 1516 1518 1519 1520 1520 1520 1521 1522 1522 1522 1522 1522 1522 1522 1522 1521 1521 1520 1520 1520 1519 1519 1518 1518 1517
1491 1497 1504 1512 1519 1532 1522 1526 1521 1508 1501 1497 1495 1496 1497 1498 1500 1501 1503 1505 1507 1509 1510 1512 1514 1515 1517 1518 1518 1519 1519 1520 1521 1520 1520 1520 1520 1520 1520 1520 1519 1519 1519 1519 1518 1517 1517 1516 1516
1493 1510 1530 1533 1540 1535 1521 1523 1517 1497 1493 1492 1492 1493 1494 1495 1497 1499 1500 1502 1504 1506 1508 1510 1512 1514 1515 1516 1516 1517 1518 1518 1519 1518 1518 1518 1518 1518 1518 1518 1518 1518 1518 1517 1516 1516 1515 1515 1514
1496 1505 1529 1539 1542 1535 1523 1524 1506 1492 1490 1489 1490 1491 1492 1493 1495 1497 1498 1500 1502 1504 1506 1508 1510 1512 1513 1514 1515 1516 1516 1517 1517 1517 1517 1517 1517 1517 1517 1517 1517 1517 1516 1516 1515 1514 1513 1513 1512
1496 1505 1506 1524 1531 1536 1529 1517 1501 1491 1490 1489 1489 1489 1490 1492 1494 1495 1497 1499 1501 1503 1505 1507 1508 1510 1512 1513 1514 1514 1515 1515 1516 1516 1516 1515 1515 1515 1515 1515 1515 1515 1514 1514 1513 1512 1511 1511 1510
1489 1499 1513 1525 1537 1540 1529 1522 1514 1497 1493 1490 1489 1489 1490 1492 1493 1495 1496 1497 1499 1501 1503 1506 1507 1509 1510 1512 1512 1513 1513 1514 1514 1514 1514 1514 1514 1513 1513 1513 1513 1512 1512 1511 1510 1509 1509 1508 1507
1496 1502 1512 1524 1525 1537 1538 1524 1495 1493 1490 1489 1488 1489 1490 1491 1492 1494 1495 1496 1498 1500 1502 1504 1505 1507 1508 1510 1511 1511 1512 1512 1512 1512 1512 1512 1512 1512 1511 1511 1510 1509 1509 1509 1508 1507 1506 1505 1505
1489 1496 1506 1517 1524 1528 1532 1521 1488 1488 1487 1487 1487 1488 1489 1490 1492 1493 1494 1496 1497 1498 1500 1502 1503 1505 1506 1508 1509 1509 1510 1510 1510 1510 1510 1510 1510 1509 1509 1509 1508 1507 1506 1506 1505 1504 1503 1502 1501